Tracking 22879 objects as of 22-Apr-2021
HD Live streaming from Space Station
objects crossing your sky now

OBJECT AE

Track OBJECT AE now!
10-day predictions


NORAD ID: 43786
Int'l Code: 2018-099AE
Perigee: 578.1 km
Apogee: 597.4 km
Inclination: 97.7 °
Period: 96.3 minutes
Semi major axis: 6958 km
RCS: Unknown
Launch date: December 3, 2018
Source: (TBD)
Launch site: AIR FORCE WESTERN TEST RANGE (AFWTR)
aabbcc
Your satellite tracking list
Your tracking list is empty




NASA's NSSDC Master Catalog

Two Line Element Set (TLE):
1 43786U 18099AE  21111.76794549  .00000196  00000-0  22759-4 0  9997
2 43786  97.6704 183.8369 0013828 237.2895 122.6993 14.95571871130014
Source of the keplerian elements: AFSPC